Showing default

ORBCOMM FM 115, 41186

Orbit data source: Space-Track

ORBCOMM FM 115, 41186 is a payload satellite owned by Orbcomm (US) in LEO that was launched on Tue, 22 Dec 2015 UTC via an FALCON 9 launch vehicle from the Air Force Eastern Test Range (AFETR). Payload-class satellites include a variety of spacecraft equipped with specific instruments for various scientific and technological missions. These include communications satellites like Starlink; space stations such as the ISS; scientific satellites like the Hubble; Earth observation satellites from companies like Planet Labs, Umbra, and HawkEye 360; GPS; miniature CubeSats for education and research; and military/defense satellites.

Loading next visibility...
Identifier
41186, 2015-081H
Orbit
LEO
Country
Flag of USUS / ORB
Related business
Manufacturer
SNC Louisville
Mission
Non-operational Commercial Communications
Bus & Motor
SN-100A, Unknown motor
Mass
172 kg wet, 158 kg dry
Launch date (UTC)
2015-12-22 (10 years ago)
Launch vehicle
FALCON 9
Launch site
Air Force Eastern Test Range (AFETR)
Object type
Payload
Rocket body
Debris
Shape & HBR
Box + 1 Pan + 1 Ant, 5.3 m
Radar Cross Section
2.222 m², Medium (>0.1 m² and < 1m²)

Expand to show TLE details & history
Last TLE update: 2 days ago

TLE from 2 days ago
0 ORBCOMM FM 115
1 41186U 15081H   26171.44550497  .00000349  00000-0  10105-3 0  9996
2 41186  46.9984  86.9826 0001593 312.1894  47.8859 14.63270977561691
Epoch: 2026-06-20T10:41Z
TLE epoch observation values (Epoch: 2026-06-20T10:41:31.629Z)
Latitude
0.00005°
Longitude
17.94084°
Altitude
682.093 km
Speed
7.517 km/s
True Right ascension
05h 47m 55s
True Declination
0° 00' 00"
Sunlit
Object was in daylight at epoch
Visualization orbit readout
Latitude
Unknown
Longitude
Unknown
Altitude
Unknown
Speed
Unknown
Apparent Right ascension
Unknown
Apparent Declination
Unknown
Sunlit
N/A
Visualization observer readout
Local Sidereal Time
21:41:39
Azimuth
Unknown
Elevation
Unknown
Doppler factor
Unknown
Orbital elements
Apogee altitude
684.995 km
Perigee altitude
682.745 km
Semi-major axis
7,062.007 km
Eccentricity
0.00016
Inclination
46.9984°
RAAN
86.9826°
Arg. of periapsis
312.1894°
True anomaly
47.89944°
Mean anomaly
47.8859°
Eccentric anomaly
47.89267°
Mean motion
3.65722 °/min
Orbital period
98.44 mins
BSTAR
0.00010105
Loading maneuver chart data...
Computing Atmospheric mass density...
Loading historical data...
Loading historical data...
Loading historical data...
Loading historical data...
Loading historical data...
Loading historical data...
Loading historical data...

Documentation

Showing up to 5 results
|